Location: Nicosia
(35.1670°N, 33.3670°E)
Time: 04:55:14
(UTC+03:00)

Envisat - Visible Passes

Search period start: 07 October 2022 00:00
Search period end: 17 October 2022 00:00
Orbit: 764 x 765 km, 98.2° (Epoch: 06 October)

Date Brightness Start Highest point End Pass type
(mag) Time Alt. Az. Time Alt. Az. Time Alt. Az.
07 Oct 4.1 04:33:47 10° NNE 04:38:36 41° E 04:43:21 10° S visible
07 Oct 4.3 06:13:39 10° NNW 06:17:14 20° WNW 06:20:50 10° WSW visible
08 Oct 5.5 03:58:04 10° NE 04:01:25 18° E 04:04:45 10° SE visible
08 Oct 3.3 05:35:46 10° N 05:40:35 45° WNW 05:45:23 10° SW visible
09 Oct 3.1 04:58:38 10° NNE 05:03:43 77° ESE 05:08:47 10° S visible
10 Oct 4.6 04:22:10 10° NE 04:26:40 32° E 04:31:09 10° SSE visible
10 Oct 4.0 06:01:23 10° NNW 06:05:29 25° WNW 06:09:36 10° WSW visible
11 Oct 5.8 03:47:06 10° ENE 03:49:26 13° E 03:51:46 10° ESE visible
11 Oct 3.0 05:23:46 10° N 05:28:45 59° WNW 05:33:43 10° SSW visible
12 Oct 3.5 04:46:50 10° NNE 04:51:50 58° E 04:56:49 10° S visible
13 Oct 5.1 04:10:38 10° NE 04:14:44 24° E 04:18:49 10° SSE visible
13 Oct 3.7 05:49:13 10° N 05:53:43 33° WNW 05:58:11 10° SW visible
14 Oct 2.8 05:11:50 10° N 05:16:55 77° WNW 05:21:58 10° SSW visible
15 Oct 4.0 04:35:05 10° NNE 04:39:56 44° E 04:44:45 10° S visible
15 Oct 4.3 06:15:05 10° NNW 06:18:33 19° WNW 06:22:01 10° WSW visible
16 Oct 5.5 03:59:16 10° NE 04:02:46 19° E 04:06:15 10° SE visible
16 Oct 3.3 05:37:08 10° N 05:41:54 42° WNW 05:46:39 10° SW visible
